Back to catalog

STARLINK-5242

AliveCommunicationsVLEO
NORAD 54173·PAYLOAD·🇺🇸 United States

Launched Oct 28, 2022 from Vandenberg Space Force Base

Loading…

Next Passes (next 24 hours)

TLE

FreshSource: CelesTrak SupGP

Epoch: Sep 14, 2026, 22:06 UTC

1 54173C 22141S   26257.92131944  .00005815  00000+0  17180-3 0  2570
2 54173  53.1575 219.9504 0001294  93.9296 328.3431 15.34388917    16

Track STARLINK-5242 in real time with AllMySat

Download on the App Store